Location: Melizzano
(41.1500°N, 14.5000°E)
Time: 09:21:00
(UTC+00:00)

Cosmos 44 Rocket - Pass Details

Date: 11 May 2021
Orbit: 636 x 754 km, 65.1° (Epoch: 15 June)

Event Time Altitude Azimuth Distance (km) Brightness Sun altitude
Rises 23:24:06 0° 331° (NNW) 3,211 7.5 -30.4°
Reaches altitude 10° 23:26:35 10° 336° (NNW) 2,278 6.6 -30.4°
Enters shadow 23:31:23 51° 41° (NE) 933 4.1 -30.2°
